| time (UTC) | temp C | wind direction | speed KPH | gust KPH | rain 1hr cm | rain 24hr cm | rain mn cm | humidity % | barometer mb |
| 20260505113038 | 26 | 156 | 0.0 | 0.0 | 0.00 | 0.00 | 0.00 | 81 | 1015.5 |
| 20260505111536 | 25 | 156 | 0.0 | 0.0 | 0.00 | 0.00 | 0.00 | 79 | 1015.3 |
| 20260505101535 | 23 | 233 | 0.0 | 0.0 | 0.00 | 0.00 | 0.00 | 74 | 1014.6 |
| 20260505100033 | 23 | 153 | 0.0 | 0.0 | 0.00 | 0.00 | 0.00 | 72 | 1014.5 |
| 20260505094532 | 23 | 229 | 0.0 | 0.0 | 0.00 | 0.00 | 0.00 | 72 | 1014.5 |
| 20260505093032 | 23 | 225 | 0.0 | 0.0 | 0.00 | 0.00 | 0.00 | 71 | 1014.4 |
| 20260505091532 | 23 | 212 | 0.0 | 0.0 | 0.00 | 0.00 | 0.00 | 73 | 1014.3 |
| 20260505090030 | 23 | 171 | 0.0 | 0.0 | 0.00 | 0.00 | 0.00 | 72 | 1014.3 |
| 20260505084544 | 23 | 205 | 0.0 | 0.0 | 0.00 | 0.00 | 0.00 | 73 | 1014.1 |
| 20260505083046 | 23 | 230 | 0.0 | 0.0 | 0.00 | 0.00 | 0.00 | 73 | 1014.1 |
| 20260505081532 | 23 | 230 | 0.0 | 0.0 | 0.00 | 0.00 | 0.00 | 71 | 1014.0 |
| 20260505080037 | 23 | 215 | 0.0 | 0.0 | 0.00 | 0.00 | 0.00 | 74 | 1014.0 |
| 20260505074525 | 24 | 216 | 0.0 | 0.0 | 0.00 | 0.00 | 0.00 | 72 | 1013.8 |
| 20260505073035 | 24 | 210 | 0.0 | 0.0 | 0.00 | 0.00 | 0.00 | 73 | 1013.9 |
| 20260505071528 | 24 | 210 | 0.0 | 0.0 | 0.00 | 0.00 | 0.00 | 74 | 1013.9 |
| 20260505070025 | 24 | 210 | 0.0 | 0.0 | 0.00 | 0.00 | 0.00 | 76 | 1013.9 |
| 20260505064520 | 24 | 210 | 0.0 | 0.0 | 0.00 | 0.00 | 0.00 | 75 | 1014.0 |
| 20260505063021 | 24 | 210 | 0.0 | 0.0 | 0.00 | 0.00 | 0.00 | 74 | 1014.0 |
| 20260505061526 | 24 | 210 | 0.0 | 0.0 | 0.00 | 0.00 | 0.00 | 75 | 1014.0 |
| 20260505060020 | 24 | 174 | 0.0 | 0.0 | 0.00 | 0.00 | 0.00 | 76 | 1014.2 |
| 20260505054513 | 24 | 226 | 0.0 | 0.0 | 0.00 | 0.00 | 0.00 | 77 | 1014.5 |
| 20260505053010 | 24 | 227 | 0.0 | 0.0 | 0.00 | 0.00 | 0.00 | 78 | 1014.7 |
| 20260505051509 | 24 | 217 | 0.0 | 0.0 | 0.00 | 0.00 | 0.00 | 79 | 1014.8 |
| 20260505041604 | 25 | 172 | 0.0 | 0.0 | 0.00 | 0.00 | 0.00 | 81 | 1015.2 |
| 20260505040056 | 25 | 293 | 0.0 | 0.0 | 0.00 | 0.00 | 0.00 | 81 | 1015.3 |
| 20260505034552 | 25 | 8 | 0.0 | 0.0 | 0.00 | 0.00 | 0.00 | 81 | 1015.5 |
| 20260505033052 | 26 | 8 | 0.0 | 0.0 | 0.00 | 0.00 | 0.00 | 81 | 1015.6 |
| 20260505031553 | 25 | 217 | 0.0 | 0.0 | 0.00 | 0.00 | 0.00 | 81 | 1015.5 |
| 20260505030109 | 25 | 217 | 0.0 | 0.0 | 0.00 | 0.00 | 0.00 | 81 | 1015.6 |
| 20260505024556 | 25 | 198 | 0.0 | 0.0 | 0.00 | 0.00 | 0.00 | 81 | 1015.5 |
| 20260505023050 | 25 | 213 | 0.0 | 0.0 | 0.00 | 0.00 | 0.00 | 81 | 1015.5 |
| 20260505021550 | 25 | 188 | 0.0 | 0.0 | 0.00 | 0.00 | 0.00 | 81 | 1015.5 |
| 20260505020048 | 25 | 158 | 0.0 | 0.0 | 0.00 | 0.00 | 0.00 | 81 | 1015.5 |
| 20260505014603 | 26 | 224 | 0.0 | 0.0 | 0.00 | 0.00 | 0.00 | 81 | 1015.4 |
| 20260505013052 | 26 | 143 | 0.0 | 0.0 | 0.00 | 0.00 | 0.00 | 81 | 1015.2 |
| 20260505011550 | 26 | 117 | 0.0 | 0.0 | 0.00 | 0.00 | 0.00 | 81 | 1015.0 |
| 20260505010055 | 26 | 105 | 0.0 | 0.0 | 0.00 | 0.00 | 0.00 | 81 | 1014.9 |
| 20260505004550 | 26 | 134 | 0.0 | 0.0 | 0.00 | 0.00 | 0.00 | 81 | 1014.7 |
| 20260505003055 | 27 | 122 | 0.0 | 0.0 | 0.00 | 0.00 | 0.00 | 80 | 1014.6 |
| 20260505001546 | 27 | 108 | 0.0 | 0.0 | 0.00 | 0.00 | 0.00 | 80 | 1014.6 |
| 20260505000048 | 27 | 101 | 0.0 | 0.0 | 0.00 | 0.00 | 0.00 | 79 | 1014.6 |
| 20260504234546 | 27 | 75 | 0.0 | 0.0 | 0.00 | 0.00 | 0.00 | 78 | 1014.6 |
| 20260504233046 | 27 | 146 | 0.0 | 0.0 | 0.00 | 0.00 | 0.00 | 78 | 1014.3 |
| 20260504231543 | 27 | 92 | 0.0 | 0.0 | 0.00 | 0.00 | 0.00 | 77 | 1014.2 |
| 20260504230043 | 27 | 115 | 0.0 | 0.0 | 0.00 | 0.00 | 0.00 | 76 | 1014.0 |
| 20260504224542 | 27 | 214 | 0.0 | 0.0 | 0.00 | 0.00 | 0.00 | 75 | 1013.9 |
| 20260504223057 | 28 | 141 | 0.0 | 0.0 | 0.00 | 0.00 | 0.00 | 75 | 1013.6 |
| 20260504221542 | 28 | 122 | 0.0 | 0.0 | 0.00 | 0.00 | 0.00 | 75 | 1013.4 |
| 20260504220039 | 28 | 106 | 0.0 | 0.0 | 0.00 | 0.00 | 0.00 | 74 | 1013.2 |
| 20260504214539 | 29 | 186 | 1.6 | 11.3 | 0.00 | 0.00 | 0.00 | 71 | 1013.0 |
| 20260504213040 | 30 | 167 | 0.0 | 0.0 | 0.00 | 0.00 | 0.00 | 69 | 1012.8 |
| 20260504211603 | 30 | 127 | 0.0 | 0.0 | 0.00 | 0.00 | 0.00 | 68 | 1012.9 |
| 20260504210044 | 30 | 153 | 0.0 | 16.1 | 0.00 | 0.00 | 0.00 | 68 | 1012.9 |
| 20260504204538 | 30 | 133 | 0.0 | 14.5 | 0.00 | 0.00 | 0.00 | 69 | 1012.6 |
| 20260504203036 | 30 | 164 | 0.0 | 16.1 | 0.00 | 0.00 | 0.00 | 69 | 1012.6 |
| 20260504201536 | 30 | 99 | 0.0 | 17.7 | 0.00 | 0.00 | 0.00 | 67 | 1012.6 |
| 20260504200033 | 31 | 148 | 6.4 | 17.7 | 0.00 | 0.00 | 0.00 | 63 | 1012.7 |
| 20260504194529 | 31 | 103 | 0.0 | 16.1 | 0.00 | 0.00 | 0.00 | 67 | 1012.8 |
| 20260504193026 | 31 | 154 | 0.0 | 16.1 | 0.00 | 0.00 | 0.00 | 66 | 1013.0 |
| 20260504191525 | 31 | 156 | 0.0 | 9.7 | 0.00 | 0.00 | 0.00 | 66 | 1012.9 |
| 20260504190017 | 30 | 97 | 0.0 | 0.0 | 0.00 | 0.00 | 0.00 | 70 | 1013.1 |
| 20260504184513 | 31 | 83 | 0.0 | 12.9 | 0.00 | 0.00 | 0.00 | 67 | 1013.3 |
| 20260504183012 | 31 | 114 | 0.0 | 11.3 | 0.00 | 0.00 | 0.00 | 68 | 1013.4 |
| 20260504181510 | 31 | 86 | 0.0 | 0.0 | 0.00 | 0.00 | 0.00 | 65 | 1013.4 |
| 20260504180010 | 31 | 141 | 4.8 | 19.3 | 0.00 | 0.00 | 0.00 | 63 | 1013.5 |
| 20260504174507 | 32 | 85 | 0.0 | 4.8 | 0.00 | 0.00 | 0.00 | 60 | 1013.7 |
| 20260504173006 | 31 | 114 | 0.0 | 16.1 | 0.00 | 0.00 | 0.00 | 60 | 1013.9 |
| 20260504171505 | 31 | 183 | 1.6 | 20.9 | 0.00 | 0.00 | 0.00 | 60 | 1014.1 |